19.04.2024;19:00;4
19.04.2024;18:00;4
19.04.2024;17:00;3
19.04.2024;16:00;3
19.04.2024;15:00;4
19.04.2024;14:00;4
19.04.2024;13:00;5
19.04.2024;12:00;6
19.04.2024;11:00;6
19.04.2024;10:00;6
19.04.2024;09:00;5
19.04.2024;08:00;5
19.04.2024;07:00;5
19.04.2024;06:00;5
19.04.2024;05:00;5
19.04.2024;04:00;5
19.04.2024;03:00;5
19.04.2024;02:00;5
19.04.2024;01:00;6
18.04.2024;24:00;7
18.04.2024;23:00;6
18.04.2024;22:00;8
18.04.2024;21:00;8
18.04.2024;20:00;7
18.04.2024;19:00;7
18.04.2024;18:00;7
18.04.2024;17:00;8
18.04.2024;16:00;7
18.04.2024;15:00;5
18.04.2024;14:00;4
18.04.2024;13:00;5
18.04.2024;12:00;7
18.04.2024;11:00;8
18.04.2024;10:00;10
18.04.2024;09:00;10
18.04.2024;08:00;9
18.04.2024;07:00;8
18.04.2024;06:00;8
18.04.2024;05:00;6
18.04.2024;04:00;6
18.04.2024;03:00;4
18.04.2024;02:00;4
18.04.2024;01:00;4
17.04.2024;24:00;4
17.04.2024;23:00;4
17.04.2024;22:00;4
17.04.2024;21:00;6
17.04.2024;20:00;4
17.04.2024;19:00;8
17.04.2024;18:00;7
17.04.2024;17:00;5
17.04.2024;16:00;6
17.04.2024;15:00;5
17.04.2024;14:00;4
17.04.2024;13:00;4
17.04.2024;12:00;6
17.04.2024;11:00;6
17.04.2024;10:00;5
17.04.2024;09:00;4
17.04.2024;08:00;3
17.04.2024;07:00;2
17.04.2024;06:00;3
17.04.2024;05:00;3
17.04.2024;04:00;3
17.04.2024;03:00;3
17.04.2024;02:00;3
17.04.2024;01:00;4
16.04.2024;24:00;4
16.04.2024;23:00;5
16.04.2024;22:00;5
16.04.2024;21:00;5
16.04.2024;20:00;5
16.04.2024;19:00;6
16.04.2024;18:00;6
16.04.2024;17:00;6
16.04.2024;16:00;5
16.04.2024;15:00;5
16.04.2024;14:00;4
16.04.2024;13:00;3
16.04.2024;12:00;3
16.04.2024;11:00;2
16.04.2024;10:00;3
16.04.2024;09:00;4
16.04.2024;08:00;5
16.04.2024;07:00;4
16.04.2024;06:00;5
16.04.2024;05:00;4
16.04.2024;04:00;4
16.04.2024;03:00;5
16.04.2024;02:00;6
16.04.2024;01:00;10
15.04.2024;24:00;9
15.04.2024;23:00;10
15.04.2024;22:00;11
15.04.2024;21:00;11
15.04.2024;20:00;12
15.04.2024;19:00;14
15.04.2024;18:00;13
15.04.2024;17:00;14
15.04.2024;16:00;19
15.04.2024;15:00;25
15.04.2024;14:00;23
15.04.2024;13:00;25
15.04.2024;12:00;23
15.04.2024;11:00;23
15.04.2024;10:00;22
15.04.2024;09:00;21
15.04.2024;08:00;15
15.04.2024;07:00;14
15.04.2024;06:00;13
15.04.2024;05:00;16
15.04.2024;04:00;20
15.04.2024;03:00;19
15.04.2024;02:00;18
15.04.2024;01:00;20
14.04.2024;24:00;21
14.04.2024;23:00;21
14.04.2024;22:00;22
14.04.2024;21:00;18
14.04.2024;20:00;14
14.04.2024;19:00;12
14.04.2024;18:00;9
14.04.2024;17:00;9
14.04.2024;16:00;7
14.04.2024;15:00;7
14.04.2024;14:00;7
14.04.2024;13:00;7
14.04.2024;12:00;6
14.04.2024;11:00;6
14.04.2024;10:00;7
14.04.2024;09:00;10
14.04.2024;08:00;12
14.04.2024;07:00;17
14.04.2024;06:00;19
14.04.2024;05:00;19
14.04.2024;04:00;20
14.04.2024;03:00;18
14.04.2024;02:00;19
14.04.2024;01:00;22
